CW9451 Weather Reports


Display with metric or nautical units.
time (UTC)temp
F
wind
direction
speed
MPH
gust
MPH
rain 1hr
in
rain 24hr
in
rain mn
in
humidity
%
barometer
mb
20260903205905 65 0.0 0.0 0.00 0.00 0.00 10 1018.6
20260903204904 65 0.0 0.0 0.00 0.00 0.00 10 1018.5
20260903203905 65 0.0 0.0 0.00 0.00 0.00 10 1018.6
20260903202909 65 0.0 0.0 0.00 0.00 0.00 10 1018.7
20260903194905 65 0.0 0.0 0.00 0.00 0.00 10 1018.6
20260903193904 65 0.0 0.0 0.00 0.00 0.00 10 1018.7
20260903192905 65 0.0 0.0 0.00 0.00 0.00 10 1018.8
20260903191904 65 0.0 0.0 0.00 0.00 0.00 10 1018.8
20260903190904 65 0.0 0.0 0.00 0.00 0.00 10 1018.8
20260903185903 65 0.0 0.0 0.00 0.00 0.00 10 1018.8
20260903184904 65 0.0 0.0 0.00 0.00 0.00 10 1018.7
20260903183905 65 0.0 0.0 0.00 0.00 0.00 10 1018.6
20260903182905 65 0.0 0.0 0.00 0.00 0.00 10 1018.4
20260903181905 66 0.0 0.0 0.00 0.00 0.00 10 1018.4
20260903180905 66 0.0 0.0 0.00 0.00 0.00 10 1018.2
20260903175904 66 0.0 0.0 0.00 0.00 0.00 10 1018.3
20260903174905 67 0.0 0.0 0.00 0.00 0.00 10 1018.2
20260903173904 67 0.0 0.0 0.00 0.00 0.00 10 1018.0
20260903172908 68 0.0 0.0 0.00 0.00 0.00 10 1018.3
20260903170903 67 0.0 0.0 0.00 0.00 0.00 10 1018.3
20260903165904 67 0.0 0.0 0.00 0.00 0.00 10 1018.0
20260903165809 67 0.0 0.0 0.00 0.00 0.00 10 1018.1
20260903165504 67 0.0 0.0 0.00 0.00 0.00 10 1018.0
20260903165403 67 0.0 0.0 0.00 0.00 0.00 10 1018.1
20260903165305 68 0.0 0.0 0.00 0.00 0.00 10 1018.1
20260903165208 68 0.0 0.0 0.00 0.00 0.00 10 1018.1
20260903165004 68 0.0 0.0 0.00 0.00 0.00 10 1018.1
20260903164029 68 0.0 0.0 0.00 0.00 0.00 10 1018.4
20260903162905 67 0.0 0.0 0.00 0.00 0.00 10 1018.5
20260903161904 68 0.0 0.0 0.00 0.00 0.00 10 1018.7
20260903160904 67 0.0 0.0 0.00 0.00 0.00 10 1018.5
20260903155909 66 0.0 0.0 0.00 0.00 0.00 10 1018.5
20260903153905 67 0.0 0.0 0.00 0.00 0.00 10 1018.8
20260903152905 65 0.0 0.0 0.00 0.00 0.00 10 1018.6
20260903151904 65 0.0 0.0 0.00 0.00 0.00 10 1018.6
20260903150904 66 0.0 0.0 0.00 0.00 0.00 10 1018.4
20260903145904 66 0.0 0.0 0.00 0.00 0.00 10 1018.4
20260903144904 67 0.0 0.0 0.00 0.00 0.00 10 1018.4
20260903143905 68 0.0 0.0 0.00 0.00 0.00 10 1018.8
20260903142909 66 0.0 0.0 0.00 0.00 0.00 10 1018.9
20260903140904 65 0.0 0.0 0.00 0.00 0.00 10 1019.0
20260903135904 64 0.0 0.0 0.00 0.00 0.00 10 1018.9
20260903134903 64 0.0 0.0 0.00 0.00 0.00 10 1019.1
20260903133903 64 0.0 0.0 0.00 0.00 0.00 10 1019.0
20260903132904 64 0.0 0.0 0.00 0.00 0.00 10 1018.8
20260903131904 64 0.0 0.0 0.00 0.00 0.00 10 1018.8
20260903130904 64 0.0 0.0 0.00 0.00 0.00 10 1018.8
20260903125904 64 0.0 0.0 0.00 0.00 0.00 10 1018.6
20260903124904 64 0.0 0.0 0.00 0.00 0.00 10 1018.7
20260903123905 64 0.0 0.0 0.00 0.00 0.00 10 1018.5
20260903122904 65 0.0 0.0 0.00 0.00 0.00 10 1018.4
20260903121909 65 0.0 0.0 0.00 0.00 0.00 10 1018.1
20260903115904 66 0.0 0.0 0.00 0.00 0.00 10 1017.8
20260903114904 66 0.0 0.0 0.00 0.00 0.00 10 1017.6
20260903113904 66 0.0 0.0 0.00 0.00 0.00 10 1017.5
20260903112905 68 0.0 0.0 0.00 0.00 0.00 92 1017.2
20260903111904 69 0.0 0.0 0.00 0.00 0.00 82 1017.0
20260903110908 70 0.0 0.0 0.00 0.00 0.00 80 1017.0
20260903104904 69 0.0 0.0 0.00 0.00 0.00 79 1017.2
20260903103905 69 0.0 0.0 0.00 0.00 0.00 80 1017.2
20260903102904 69 0.0 0.0 0.00 0.00 0.00 80 1017.5
20260903101903 69 0.0 0.0 0.00 0.00 0.00 80 1017.7
20260903100904 69 0.0 0.0 0.00 0.00 0.00 78 1017.6
20260903095904 69 0.0 0.0 0.00 0.00 0.00 78 1017.9
20260903094904 69 0.0 0.0 0.00 0.00 0.00 78 1017.9
20260903093908 69 0.0 0.0 0.00 0.00 0.00 80 1018.0
20260903091904 69 0.0 0.0 0.00 0.00 0.00 81 1018.2
20260903090905 68 0.0 0.0 0.00 0.00 0.00 83 1018.3
20260903085909 67 0.0 0.0 0.00 0.00 0.00 84 1018.4
20260903083904 67 0.0 0.0 0.00 0.00 0.00 85 1018.6
20260903082908 67 0.0 0.0 0.00 0.00 0.00 85 1018.8
20260903080904 66 0.0 0.0 0.00 0.00 0.00 88 1019.4
20260903075904 65 0.0 0.0 0.00 0.00 0.00 90 1019.4
20260903074905 64 0.0 0.0 0.00 0.00 0.00 91 1019.6
20260903073904 64 0.0 0.0 0.00 0.00 0.00 91 1019.5
20260903072904 64 0.0 0.0 0.00 0.00 0.00 93 1019.6
20260903071905 64 0.0 0.0 0.00 0.00 0.00 96 1019.8
20260903070905 63 0.0 0.0 0.00 0.00 0.00 96 1019.9
20260903065904 63 0.0 0.0 0.00 0.00 0.00 93 1019.9
20260903064905 63 0.0 0.0 0.00 0.00 0.00 93 1019.6
20260903063904 63 0.0 0.0 0.00 0.00 0.00 94 1019.7
20260903062904 62 0.0 0.0 0.00 0.00 0.00 94 1019.8
20260903061904 62 0.0 0.0 0.00 0.00 0.00 94 1019.6
20260903060908 62 0.0 0.0 0.00 0.00 0.00 95 1019.9
20260903054904 62 0.0 0.0 0.00 0.00 0.00 96 1019.9
20260903053904 61 0.0 0.0 0.00 0.00 0.00 96 1020.0
20260903052904 61 0.0 0.0 0.00 0.00 0.00 96 1020.4
20260903051904 61 0.0 0.0 0.00 0.00 0.00 96 1020.2
20260903050905 61 0.0 0.0 0.00 0.00 0.00 96 1020.1
20260903045907 61 0.0 0.0 0.00 0.00 0.00 97 1020.3
20260903044908 61 0.0 0.0 0.00 0.00 0.00 97 1020.2
20260903042903 61 0.0 0.0 0.00 0.00 0.00 96 1020.4
20260903041903 61 0.0 0.0 0.00 0.00 0.00 97 1020.3
20260903040903 61 0.0 0.0 0.00 0.00 0.00 96 1020.1
20260903035904 61 0.0 0.0 0.00 0.00 0.00 96 1020.2
20260903034904 61 0.0 0.0 0.00 0.00 0.00 95 1020.1
20260903033903 61 0.0 0.0 0.00 0.00 0.00 96 1020.3
20260903032903 61 0.0 0.0 0.00 0.00 0.00 97 1020.3
20260903031904 61 0.0 0.0 0.00 0.00 0.00 97 1020.2
20260903030905 61 0.0 0.0 0.00 0.00 0.00 97 1020.3
20260903025904 61 0.0 0.0 0.00 0.00 0.00 97 1020.4
20260903024905 61 0.0 0.0 0.00 0.00 0.00 96 1020.5
20260903023904 61 0.0 0.0 0.00 0.00 0.00 96 1020.4
20260903022904 60 0.0 0.0 0.00 0.00 0.00 95 1020.5
20260903021909 61 0.0 0.0 0.00 0.00 0.00 95 1020.6
20260903015904 61 0.0 0.0 0.00 0.00 0.00 94 1020.7
20260903014903 61 0.0 0.0 0.00 0.00 0.00 94 1020.5
20260903013904 61 0.0 0.0 0.00 0.00 0.00 93 1020.5
20260903012909 61 0.0 0.0 0.00 0.00 0.00 93 1020.7
20260903010904 62 0.0 0.0 0.00 0.00 0.00 94 1020.8
20260903005905 62 0.0 0.0 0.00 0.00 0.00 94 1020.8
20260903004904 62 0.0 0.0 0.00 0.00 0.00 94 1021.0
20260903003904 62 0.0 0.0 0.00 0.00 0.00 94 1021.0
20260903002904 62 0.0 0.0 0.00 0.00 0.00 94 1020.9
20260903001904 62 0.0 0.0 0.00 0.00 0.00 94 1021.1
20260903000905 62 0.0 0.0 0.00 0.00 0.00 94 1021.0
20260902235904 62 0.0 0.0 0.00 0.00 0.00 92 1021.1
20260902234904 62 0.0 0.0 0.00 0.00 0.00 93 1021.1
20260902233905 62 0.0 0.0 0.00 0.00 0.00 93 1021.2
20260902232905 62 0.0 0.0 0.00 0.00 0.00 93 1021.3
20260902231904 62 0.0 0.0 0.00 0.00 0.00 93 1021.2
20260902230905 63 0.0 0.0 0.00 0.00 0.00 92 1021.4
20260902225904 63 0.0 0.0 0.00 0.00 0.00 92 1021.3
20260902224904 63 0.0 0.0 0.00 0.00 0.00 92 1021.3
20260902223905 63 0.0 0.0 0.00 0.00 0.00 91 1021.2
20260902222904 63 0.0 0.0 0.00 0.00 0.00 92 1021.2
20260902221908 64 0.0 0.0 0.00 0.00 0.00 92 1021.5
20260902214904 64 0.0 0.0 0.00 0.00 0.00 91 1021.4
20260902213905 64 0.0 0.0 0.00 0.00 0.00 90 1021.4
20260902212904 63 0.0 0.0 0.00 0.00 0.00 89 1021.5
20260902211904 63 0.0 0.0 0.00 0.00 0.00 89 1021.1
20260902210905 63 0.0 0.0 0.00 0.00 0.00 88 1021.1